TimeAEST,TemperatureF,Dew PointF,Humidity,Sea Level PressureIn,VisibilityMPH,Wind Direction,Wind SpeedMPH,Gust SpeedMPH,PrecipitationIn,Events,Conditions,WindDirDegrees,DateUTC
12:00 AM,71,66,80,29.98,,WSW,2.3,,,,,250,2013-12-14 14:00:00
12:00 AM,69.8,66.2,88,29.98,6.2,WSW,2.3,-,N/A,,Scattered Clouds,250,2013-12-14 14:00:00
12:30 AM,69.8,66.2,88,29.98,6.2,Calm,Calm,-,N/A,,Mostly Cloudy,0,2013-12-14 14:30:00
1:00 AM,69.8,66.2,88,29.98,6.2,WSW,3.5,-,N/A,,Overcast,250,2013-12-14 15:00:00
1:30 AM,69.8,68.0,94,29.98,6.2,WSW,5.8,-,N/A,,Overcast,250,2013-12-14 15:30:00
2:00 AM,69.8,68.0,94,29.98,6.2,SSW,3.5,-,N/A,,Overcast,200,2013-12-14 16:00:00
2:30 AM,69.8,66.2,88,29.98,6.2,WSW,5.8,-,N/A,,Overcast,250,2013-12-14 16:30:00
3:00 AM,70,67,89,29.99,,SW,4.6,,,,Overcast,220,2013-12-14 17:00:00
3:00 AM,69.8,68.0,94,29.98,6.2,SW,4.6,-,N/A,,Overcast,220,2013-12-14 17:00:00
3:30 AM,69.8,68.0,94,29.98,6.2,WSW,6.9,-,N/A,,Overcast,240,2013-12-14 17:30:00
4:00 AM,71.6,66.2,83,29.98,6.2,SSW,4.6,-,N/A,,Overcast,210,2013-12-14 18:00:00
4:30 AM,71.6,68.0,88,29.98,6.2,SW,3.5,-,N/A,,Overcast,230,2013-12-14 18:30:00
5:00 AM,71.6,68.0,88,30.01,6.2,SW,1.2,-,N/A,,Overcast,230,2013-12-14 19:00:00
5:30 AM,71.6,68.0,88,30.01,6.2,West,2.3,-,N/A,,Overcast,270,2013-12-14 19:30:00
6:00 AM,74,64,63,30.01,,NNE,5.8,,,,,20,2013-12-14 20:00:00
6:00 AM,73.4,64.4,73,30.01,6.2,NNE,5.8,-,N/A,,Mostly Cloudy,20,2013-12-14 20:00:00
6:30 AM,75.2,64.4,69,30.01,6.2,North,5.8,-,N/A,,Unknown,10,2013-12-14 20:30:00
7:00 AM,75.2,64.4,69,30.01,6.2,North,6.9,-,N/A,,Unknown,10,2013-12-14 21:00:00
7:30 AM,77.0,62.6,61,30.04,6.2,North,6.9,-,N/A,,Unknown,10,2013-12-14 21:30:00
8:00 AM,77.0,64.4,65,30.04,6.2,NNE,8.1,-,N/A,,Unknown,20,2013-12-14 22:00:00
8:30 AM,77.0,64.4,65,30.04,6.2,North,9.2,-,N/A,,Unknown,10,2013-12-14 22:30:00
9:00 AM,78,64,53,30.04,,NNE,10.4,,,,,30,2013-12-14 23:00:00
9:00 AM,77.0,64.4,65,30.04,6.2,NNE,10.4,-,N/A,,Unknown,30,2013-12-14 23:00:00
9:30 AM,78.8,62.6,57,30.04,6.2,North,9.2,-,N/A,,Scattered Clouds,10,2013-12-14 23:30:00
10:00 AM,78.8,64.4,61,30.04,6.2,NNE,9.2,-,N/A,,Unknown,20,2013-12-15 00:00:00
10:30 AM,78.8,64.4,61,30.04,6.2,NNE,10.4,-,N/A,,Unknown,30,2013-12-15 00:30:00
11:00 AM,78.8,66.2,65,30.01,6.2,NE,10.4,-,N/A,,Unknown,40,2013-12-15 01:00:00
11:30 AM,78.8,62.6,57,30.01,6.2,NNE,11.5,-,N/A,,Unknown,30,2013-12-15 01:30:00
12:00 PM,79,65,52,30.01,,NE,11.5,,,,,50,2013-12-15 02:00:00
12:00 PM,78.8,64.4,61,30.01,6.2,NE,11.5,-,N/A,,Unknown,50,2013-12-15 02:00:00
12:30 PM,78.8,64.4,61,29.98,6.2,ENE,13.8,-,N/A,,Scattered Clouds,60,2013-12-15 02:30:00
1:00 PM,80.6,66.2,61,29.98,6.2,ENE,12.7,-,N/A,,Scattered Clouds,60,2013-12-15 03:00:00
1:30 PM,80.6,66.2,61,29.98,6.2,NE,12.7,-,N/A,,Unknown,50,2013-12-15 03:30:00
2:00 PM,78.8,64.4,61,29.98,6.2,ENE,13.8,-,N/A,,Unknown,60,2013-12-15 04:00:00
2:30 PM,80.6,66.2,61,29.98,6.2,ENE,12.7,-,N/A,,Unknown,60,2013-12-15 04:30:00
3:00 PM,80,65,52,29.97,,ENE,13.8,,,,,70,2013-12-15 05:00:00
3:00 PM,80.6,66.2,61,29.95,6.2,ENE,13.8,-,N/A,,Scattered Clouds,70,2013-12-15 05:00:00
3:30 PM,80.6,66.2,61,29.95,6.2,ENE,12.7,-,N/A,,Unknown,70,2013-12-15 05:30:00
4:00 PM,78.8,64.4,61,29.95,6.2,ENE,11.5,-,N/A,,Unknown,70,2013-12-15 06:00:00
4:30 PM,77.0,64.4,65,29.95,6.2,ENE,9.2,-,N/A,,Unknown,70,2013-12-15 06:30:00
5:00 PM,75.2,64.4,69,29.98,6.2,ENE,9.2,-,N/A,,Scattered Clouds,60,2013-12-15 07:00:00
5:30 PM,75.2,64.4,69,29.98,6.2,ENE,10.4,-,N/A,,Scattered Clouds,60,2013-12-15 07:30:00
6:00 PM,76,64,59,29.99,,ENE,9.2,,,,,70,2013-12-15 08:00:00
6:00 PM,75.2,64.4,69,29.98,6.2,ENE,9.2,-,N/A,,Unknown,70,2013-12-15 08:00:00
6:30 PM,75.2,64.4,69,30.01,6.2,ENE,9.2,-,N/A,,Unknown,70,2013-12-15 08:30:00
7:00 PM,75.2,64.4,69,30.01,6.2,East,6.9,-,N/A,,Unknown,80,2013-12-15 09:00:00
7:30 PM,75.2,66.2,73,30.01,6.2,East,5.8,-,N/A,,Unknown,80,2013-12-15 09:30:00
8:00 PM,73.4,64.4,73,30.04,6.2,SE,6.9,-,N/A,,Scattered Clouds,140,2013-12-15 10:00:00
8:30 PM,75.2,66.2,73,30.04,6.2,ESE,8.1,-,N/A,,Unknown,110,2013-12-15 10:30:00
9:00 PM,74,65,67,30.05,,ESE,6.9,,,,,120,2013-12-15 11:00:00
9:00 PM,75.2,64.4,69,30.04,6.2,ESE,6.9,-,N/A,,Scattered Clouds,120,2013-12-15 11:00:00
9:30 PM,73.4,64.4,73,30.04,6.2,ESE,6.9,-,N/A,,Scattered Clouds,110,2013-12-15 11:30:00
10:00 PM,75.2,64.4,69,30.04,6.2,ESE,8.1,-,N/A,,Mostly Cloudy,110,2013-12-15 12:00:00
10:30 PM,75.2,64.4,69,30.06,6.2,ESE,5.8,-,N/A,,Overcast,120,2013-12-15 12:30:00
11:00 PM,73.4,64.4,73,30.06,6.2,ESE,8.1,-,N/A,,Overcast,120,2013-12-15 13:00:00
11:30 PM,73.4,64.4,73,30.04,6.2,ESE,6.9,-,N/A,,Overcast,110,2013-12-15 13:30:00